TimeMDT,TemperatureF,Dew PointF,Humidity,Sea Level PressureIn,VisibilityMPH,Wind Direction,Wind SpeedMPH,Gust SpeedMPH,PrecipitationIn,Events,Conditions,WindDirDegrees,DateUTC
12:53 AM,78.1,28.0,16,30.01,10.0,Variable,6.9,-,N/A,,Mostly Cloudy,0,2013-09-06 06:53:00
1:53 AM,70.0,32.0,25,30.04,10.0,Variable,3.5,-,N/A,,Clear,0,2013-09-06 07:53:00
2:53 AM,68.0,34.0,28,30.05,10.0,East,9.2,-,N/A,,Mostly Cloudy,100,2013-09-06 08:53:00
3:53 AM,66.9,37.9,34,30.05,10.0,East,11.5,-,N/A,,Clear,80,2013-09-06 09:53:00
4:53 AM,64.0,39.9,41,30.06,10.0,East,9.2,-,N/A,,Clear,90,2013-09-06 10:53:00
5:53 AM,64.0,39.9,41,30.07,10.0,East,6.9,-,N/A,,Clear,90,2013-09-06 11:53:00
6:53 AM,62.1,39.9,44,30.09,10.0,East,8.1,-,N/A,,Clear,90,2013-09-06 12:53:00
7:53 AM,64.0,39.9,41,30.11,10.0,East,5.8,-,N/A,,Clear,100,2013-09-06 13:53:00
8:53 AM,70.0,41.0,35,30.12,10.0,East,6.9,-,N/A,,Clear,90,2013-09-06 14:53:00
9:53 AM,75.9,37.9,25,30.10,10.0,East,6.9,-,N/A,,Clear,90,2013-09-06 15:53:00
10:53 AM,81.0,37.0,21,30.08,10.0,East,5.8,-,N/A,,Clear,100,2013-09-06 16:53:00
11:53 AM,84.0,37.9,19,30.04,10.0,SSE,5.8,-,N/A,,Clear,150,2013-09-06 17:53:00
12:53 PM,88.0,37.0,16,30.01,10.0,Calm,Calm,-,N/A,,Clear,0,2013-09-06 18:53:00
1:53 PM,90.0,35.1,14,29.99,10.0,Variable,3.5,-,N/A,,Clear,0,2013-09-06 19:53:00
2:53 PM,91.9,34.0,13,29.96,10.0,SW,9.2,-,N/A,,Scattered Clouds,220,2013-09-06 20:53:00
3:53 PM,90.0,33.1,13,29.94,10.0,Variable,3.5,-,N/A,,Partly Cloudy,0,2013-09-06 21:53:00
4:53 PM,91.9,34.0,13,29.92,10.0,West,11.5,-,N/A,,Clear,280,2013-09-06 22:53:00
5:53 PM,91.0,34.0,13,29.90,10.0,West,9.2,-,N/A,,Clear,280,2013-09-06 23:53:00
6:53 PM,88.0,34.0,15,29.91,10.0,West,5.8,-,N/A,,Clear,270,2013-09-07 00:53:00
7:53 PM,81.0,34.0,18,29.92,10.0,NW,3.5,-,N/A,,Clear,310,2013-09-07 01:53:00
8:53 PM,81.0,33.1,18,29.92,10.0,Calm,Calm,-,N/A,,Clear,0,2013-09-07 02:53:00
9:53 PM,71.1,34.0,26,29.94,10.0,NNE,3.5,-,N/A,,Clear,30,2013-09-07 03:53:00
10:53 PM,70.0,35.1,28,29.94,10.0,NE,8.1,-,N/A,,Clear,40,2013-09-07 04:53:00
11:53 PM,71.1,39.0,31,29.95,10.0,East,10.4,-,N/A,,Clear,100,2013-09-07 05:53:00